Location: Cassano d�Adda
(45.5333°N, 9.5167°E)
Time: 13:12:53
(UTC+00:00)

CORIOLIS - Pass Details

Date: 08 December 2019
Orbit: 818 x 839 km, 98.7° (Epoch: 18 January)

Event Time Altitude Azimuth Distance (km) Brightness Sun altitude
Rises 16:32:51 0° 155° (SSE) 3,377 7.3 -9.3°
Reaches altitude 10° 16:35:13 10° 153° (SSE) 2,448 6.6 -9.6°
Maximum altitude 16:40:35 66° 72° (ENE) 914 4.2 -10.5°
Drops below altitude 10° 16:46:00 10° 351° (N) 2,465 6.5 -11.4°
Sets 16:48:23 0° 349° (N) 3,403 7.3 -11.8°
